Torrington, WY

11:34 AM MDT on October 17, 2017 (GMT -0600)
Torrington Municipal

Weather History for KTOR - April, 2014

Change the Weather History Date:

Monday, April 28, 2014

  Actual Average Record
Temperature  
Mean Temperature 46 °F 51 °F  
Max Temperature 51 °F 66 °F 80 °F (2001)
Min Temperature 40 °F 36 °F 25 °F (2008)
Degree Days  
Heating Degree Days 19 14  
Month to date heating degree days 493 518  
Since 1 July heating degree days 6459 6202  
Cooling Degree Days 0 0  
Month to date cooling degree days 0 0  
Year to date cooling degree days 0 0  
Moisture  
Dew Point 29 °F    
Average Humidity 53    
Maximum Humidity 73    
Minimum Humidity 33    
Precipitation  
Precipitation T in 0.07 in 0.33 in (2017)
Month to date precipitation 1.04 1.52  
Year to date precipitation 2.64 2.87  
Sea Level Pressure  
Sea Level Pressure 29.71 in    
Wind  
Wind Speed 25 mph (NW)    
Max Wind Speed 39 mph    
Max Gust Speed 50 mph    
Visibility 10 miles    
Events      
T = Trace of Precipitation, MM = Missing Value Source: NWS Daily Summary

Daily Weather History Graph

Daily Weather History Graph

Search for Another Location

Airport or City:

Trip Planner

Search our weather history database for the weather conditions in past years. The results will help you decide how hot, cold, wet, or windy it might be!

Date:

Astronomy

Apr. 28, 2014 Rise Set
Actual Time 5:56 AM MDT 7:52 PM MDT
Civil Twilight 5:26 AM MDT 8:22 PM MDT
Nautical Twilight 4:49 AM MDT 8:59 PM MDT
Astronomical Twilight 4:09 AM MDT 9:39 PM MDT
Moon 5:37 AM MDT (4/28) 7:32 PM MDT (4/28)
Length of Visible Light 14h 56m
Length of Day
13h 55m
Waning Crescent, 0% of the Moon is Illuminated
Apr 28
Waning Crescent
Apr 29
New
May 6
First Quarter
May 14
Full
May 21
Last Quarter

Hourly Weather History & Observations

Time (MDT) Temp. Windchill Dew Point Humidity Pressure Visibility Wind Dir Wind Speed Gust Speed Precip Events Conditions
2:53 AM 41.0 °F 32.2 °F 33.1 °F 73% 29.57 in 10.0 mi NW 18.4 mph 27.6 mph N/A   Clear
3:53 AM 41.0 °F 32.5 °F 32.0 °F 70% 29.59 in 10.0 mi NW 17.3 mph - N/A   Mostly Cloudy
4:53 AM 41.0 °F 32.2 °F 32.0 °F 70% 29.61 in 10.0 mi NW 18.4 mph 25.3 mph N/A   Overcast
5:53 AM 41.0 °F 31.6 °F 30.9 °F 67% 29.61 in 10.0 mi NW 20.7 mph 27.6 mph N/A   Partly Cloudy
6:53 AM 41.0 °F 31.6 °F 30.9 °F 67% 29.62 in 10.0 mi NW 20.7 mph 28.8 mph N/A   Clear
7:53 AM 42.1 °F 32.3 °F 30.9 °F 65% 29.61 in 10.0 mi NW 24.2 mph 34.5 mph N/A   Clear
8:53 AM 45.0 °F 36.0 °F 28.9 °F 53% 29.61 in 10.0 mi NW 25.3 mph 39.1 mph N/A   Clear
9:53 AM 46.0 °F 36.4 °F 25.0 °F 44% 29.62 in 10.0 mi NNW 32.2 mph 47.2 mph N/A   Clear
10:53 AM 48.0 °F - 27.0 °F 44% 29.65 in 10.0 mi NNW 29.9 mph 40.3 mph N/A   Partly Cloudy
11:53 AM 48.0 °F - 27.0 °F 44% 29.67 in 10.0 mi NW 29.9 mph 42.6 mph N/A   Mostly Cloudy
12:53 PM 48.9 °F - 26.1 °F 41% 29.67 in 10.0 mi NNW 31.1 mph 43.7 mph N/A   Scattered Clouds
1:53 PM 48.9 °F - 27.0 °F 43% 29.70 in 10.0 mi NW 28.8 mph 48.3 mph 0.00 in   Mostly Cloudy
3:53 PM 50.0 °F - 25.0 °F 38% 29.72 in 9.0 mi NNW 28.8 mph 44.9 mph N/A   Clear
4:53 PM 50.0 °F - 23.0 °F 35% 29.74 in 10.0 mi NNW 31.1 mph 42.6 mph N/A   Clear
5:53 PM 48.0 °F - 28.0 °F 46% 29.78 in 10.0 mi NNW 24.2 mph 47.2 mph N/A   Scattered Clouds
6:53 PM 45.0 °F 35.2 °F 28.0 °F 52% 29.82 in 10.0 mi NNW 29.9 mph 40.3 mph N/A   Mostly Cloudy
7:53 PM 44.1 °F 35.2 °F 28.9 °F 55% 29.86 in 10.0 mi NNW 23.0 mph 33.4 mph N/A   Overcast
9:53 PM 41.0 °F 32.5 °F 30.9 °F 67% 29.91 in 10.0 mi NW 17.3 mph 26.5 mph N/A   Overcast
10:53 PM 42.1 °F 32.3 °F 30.0 °F 62% 29.90 in 10.0 mi NW 24.2 mph 33.4 mph N/A   Overcast
11:53 PM 42.1 °F 31.3 °F 30.0 °F 62% 29.92 in 10.0 mi NW 29.9 mph 47.2 mph N/A   Overcast